Location: Feigenhofen
(48.4939°N, 10.7793°E)
Time: 16:08:31
(UTC+00:00)

SAR-Lupe-2 - Pass Details

Date: 26 May 2022
Orbit: 481 x 482 km, 98.1° (Epoch: 23 June)

Event Time Altitude Azimuth Distance (km) Brightness Sun altitude
Rises 01:02:06 0° 19° (NNE) 2,556 9.0 -16.3°
Reaches altitude 10° 01:04:15 10° 26° (NNE) 1,671 7.7 -16.2°
Maximum altitude 01:07:41 44° 100° (E) 683 4.4 -15.9°
Enters shadow 01:09:35 23° 161° (SSE) 1,082 4.9 -15.8°
